Miscellaneous Local Product
Issued by NWS Hastings, NE

Home | Current Version | Previous Version | Text Only | Print | Product List | Glossary Off
Versions: 1 2 3 4 5 6 7 8 9 10 11 12 13 14 15 16 17 18 19 20 21 22 23 24 25 26 27 28 29 30 31 32 33 34 35 36 37 38 39 40 41 42 43 44 45 46 47 48 49 50

000
AXUS43 KGID 232002
MISGRI

GID CWA HOURLY WEATHER ROUNDUP
NATIONAL WEATHER SERVICE HASTINGS NE
300 PM CDT TUE AUG 23 2016

NOTE: "FAIR" INDICATES FEW OR NO CLOUDS BELOW 12,000 FEET WITH NO
SIGNIFICANT WEATHER AND/OR OBSTRUCTIONS TO VISIBILITY.

...SOUTH CENTRAL NEBRASKA...

CITY           SKY/WX    TMP DP  RH WIND       PRES   REMARKS
GRAND ISLAND   MOSUNNY   89  69  51 S20G26    29.81F HX  93
HASTINGS       MOSUNNY   90  68  48 S14G26    29.81F HX  94
KEARNEY        MOSUNNY   90  68  48 S17       29.80S HX  93
ORD            MOSUNNY   86  66  51 SW15G24   29.80R
YORK           PTSUNNY   84  72  65 S15G25    29.83F
AURORA         MOSUNNY   87  70  56 S17G25    29.81F HX  91
LEXINGTON      SUNNY     87  65  48 SW7       29.83S
HOLDREGE       SUNNY     90  62  38 SW12G21   29.82S HX  90
HEBRON         MOSUNNY   87  72  60 S15G22    29.83F HX  93

...NEBRASKA PANHANDLE...

CITY           SKY/WX    TMP DP  RH WIND       PRES   REMARKS
CHADRON        SUNNY     88  31  13 NE9G18    29.92S
ALLIANCE       SUNNY     85  36  17 NW15G23   29.95R
SCOTTSBLUFF    SUNNY     88  34  14 NW14G22   29.97S
SIDNEY         SUNNY     87  30  13 N18G30    30.01R

...WESTERN AND NORTH CENTRAL NEBRASKA...

CITY           SKY/WX    TMP DP  RH WIND       PRES   REMARKS
VALENTINE      SUNNY     85  44  23 N16G22    29.83R
AINSWORTH      SUNNY     87  60  40 NW15      29.81R
ONEILL         PTSUNNY   82  65  56 S14       29.81S
BROKEN BOW     MOSUNNY   85  67  54 S8G18     29.82S
IMPERIAL       SUNNY     92  34  13 NW16      29.88S
NORTH PLATTE   SUNNY     90  61  37 CALM      29.83S HX  90
MCCOOK         SUNNY     87  65  47 S6        29.83S

...EASTERN NEBRASKA...

CITY           SKY/WX    TMP DP  RH WIND       PRES   REMARKS
NORFOLK        PTSUNNY   83  70  64 S15G24    29.81F
SO SIOUX CITY  CLOUDY    73  69  87 SE8       29.83F
TEKAMAH        CLOUDY    82  72  71 S17G25    29.84F
COLUMBUS       CLOUDY    82  68  61 S16G24    29.82S
ALBION         PTSUNNY   84  70  63 S14       29.81F
OMAHA EPPLEY   CLOUDY    81  71  71 S24G30    29.86F
OFFUTT AFB     CLOUDY    82  74  75 SE22G29   29.86F
MILLARD        CLOUDY    82  73  74 SE17G23   29.85F
LINCOLN        PTSUNNY   88  72  58 S20G28    29.83F HX  94
NEBRASKA CITY  PTSUNNY   83  74  74 S16G25    29.89F HX  90
BEATRICE       PTSUNNY   88  73  60 S18       29.85F HX  95
FALLS CITY     CLOUDY    84  73  69 S18G29    29.90F HX  90

...NORTHERN KANSAS...

CITY           SKY/WX    TMP DP  RH WIND       PRES   REMARKS
GOODLAND       SUNNY     93  46  19 N10G18    29.91S
HILL CITY      SUNNY     92  61  35 S15G21    29.81F HX  92
NORTON         CLEAR     95  48  20 S9G16     29.80S HX  91
SMITH CENTER   MOSUNNY   93  63  36 S23G30    29.80F HX  94
BELOIT         MOSUNNY   88  70  55 S16G24    29.81F HX  92
HAYS           MOSUNNY   95  63  34 S20G31    29.81F HX  96
RUSSELL        MOSUNNY   93  65  39 SW26G35   29.82F HX  95
CONCORDIA      SUNNY     90  69  50 S24G35    29.84F HX  94
SALINA         MOSUNNY   94  70  45 S28G38    29.85F HX 100
TOPEKA         PTSUNNY   86  73  65 S20G26    29.93F HX  93



USA.gov is the U.S. government's official web portal to all federal, state and local government web resources and services.